User: anonymous   Login
Location: Unspecified
(0.0000°N, 0.0000°E)
Time: 15:33:25
(UTC+02:00)
Language:

Cosmos 407 Rocket - Orbit

View from above orbital plane
View from above orbital plane
View from above satellite
View from above satellite

Ground track
Ground track

The orbit data is extracted from the following two-line orbital elements,

1  5175U 71035B   17117.89154132 -.00000009 +00000-0 +56196-5 0  9996
2  5175 074.0468 301.7130 0029779 164.7791 195.4266 14.37851951407461
Epoch (UTC): 27 April 2017 21:23:49
Eccentricity: 0.0029779
inclination: 74.0468°
perigee height: 744 km
apogee height: 787 km
right ascension of ascending node: 301.7130°
argument of perigee: 164.7791°
revolutions per day: 14.37851951
mean anomaly at epoch: 195.4266°
orbit number at epoch: 40746

The dashed part of the orbit path shows where the satellite is in the earth's shadow,  

DLR